contact:dominique.lefevre@mio.osupytheas.fr, maurice.libes@osupytheas.fr, didier.mallarino@osupytheas.fr
Project:EMSO http://www.emso-fr.org/EMSO-France
Depth: 2436.0 m
Title:EMSO Ligure Ouest : Data MII capteur CSTAR
DateTime,Latitude,Longitude,Instrument_Serial,Reference_Counts,Signal_Counts,Corrected_Signal_raw_counts,Calculated_Beam_c_inverse_meters,Internal_thermistor_counts
DateTime,Latitude,Longitude,Instrument_Serial,Reference_Counts,Signal_Counts,Corrected_Signal_raw_counts,Calculated_Beam_c_inverse_meters,Internal_thermistor_counts
2022-01-11T00:00:06,42.805,6.029,CST-1368DR,4981,6326,13571,0.561,551
2022-01-11T00:03:07,42.805,6.029,CST-1368DR,4981,6327,13572,0.561,551
2022-01-11T00:06:09,42.805,6.029,CST-1368DR,4981,6326,13572,0.561,551
2022-01-11T00:09:10,42.805,6.029,CST-1368DR,4981,6326,13571,0.561,551
2022-01-11T00:12:12,42.805,6.029,CST-1368DR,4981,6327,13572,0.561,551
2022-01-11T00:15:14,42.805,6.029,CST-1368DR,4981,6325,13568,0.562,551
2022-01-11T00:18:15,42.805,6.029,CST-1368DR,4981,6326,13571,0.561,551
2022-01-11T00:21:17,42.805,6.029,CST-1368DR,4981,6325,13569,0.562,551
2022-01-11T00:24:18,42.805,6.029,CST-1368DR,4981,6325,13569,0.562,551
2022-01-11T00:27:20,42.805,6.029,CST-1368DR,4981,6327,13573,0.561,551
2022-01-11T00:30:22,42.805,6.029,CST-1368DR,4981,6326,13572,0.561,551
2022-01-11T00:33:23,42.805,6.029,CST-1368DR,4981,6327,13573,0.561,551
2022-01-11T00:36:25,42.805,6.029,CST-1368DR,4981,6326,13571,0.561,551
2022-01-11T00:39:26,42.805,6.029,CST-1368DR,4981,6327,13573,0.561,551
2022-01-11T00:42:28,42.805,6.029,CST-1368DR,4981,6326,13572,0.561,551
2022-01-11T00:45:29,42.805,6.029,CST-1368DR,4981,6327,13572,0.561,551
2022-01-11T00:48:31,42.805,6.029,CST-1368DR,4981,6326,13570,0.562,551
2022-01-11T00:51:33,42.805,6.029,CST-1368DR,4981,6325,13569,0.562,551
2022-01-11T00:54:34,42.805,6.029,CST-1368DR,4981,6326,13571,0.561,551
2022-01-11T00:57:36,42.805,6.029,CST-1368DR,4981,6326,13571,0.561,551
2022-01-11T01:00:37,42.805,6.029,CST-1368DR,4981,6326,13572,0.561,551
2022-01-11T01:03:39,42.805,6.029,CST-1368DR,4981,6326,13570,0.562,551
2022-01-11T01:06:40,42.805,6.029,CST-1368DR,4981,6326,13572,0.561,551
2022-01-11T01:09:42,42.805,6.029,CST-1368DR,4980,6326,13573,0.561,551
2022-01-11T01:12:44,42.805,6.029,CST-1368DR,4981,6327,13572,0.561,551
2022-01-11T01:15:45,42.805,6.029,CST-1368DR,4981,6326,13571,0.561,551
2022-01-11T01:18:47,42.805,6.029,CST-1368DR,4981,6326,13572,0.561,551
2022-01-11T01:21:48,42.805,6.029,CST-1368DR,4981,6326,13570,0.562,551
2022-01-11T01:24:50,42.805,6.029,CST-1368DR,4981,6326,13572,0.561,551
2022-01-11T01:27:52,42.805,6.029,CST-1368DR,4981,6325,13570,0.562,551
2022-01-11T01:30:53,42.805,6.029,CST-1368DR,4981,6326,13571,0.561,551
2022-01-11T01:33:55,42.805,6.029,CST-1368DR,4981,6326,13571,0.561,551
2022-01-11T01:36:56,42.805,6.029,CST-1368DR,4981,6327,13573,0.561,551
2022-01-11T01:39:58,42.805,6.029,CST-1368DR,4981,6326,13570,0.562,551
2022-01-11T01:42:59,42.805,6.029,CST-1368DR,4981,6327,13573,0.561,551
2022-01-11T01:46:01,42.805,6.029,CST-1368DR,4981,6326,13570,0.562,551
2022-01-11T01:49:03,42.805,6.029,CST-1368DR,4980,6326,13574,0.561,551
2022-01-11T01:52:04,42.805,6.029,CST-1368DR,4981,6326,13571,0.561,551
2022-01-11T01:55:06,42.805,6.029,CST-1368DR,4981,6326,13572,0.561,551
2022-01-11T01:58:07,42.805,6.029,CST-1368DR,4981,6327,13572,0.561,551
2022-01-11T02:01:09,42.805,6.029,CST-1368DR,4980,6326,13573,0.561,551
2022-01-11T02:04:10,42.805,6.029,CST-1368DR,4981,6326,13572,0.561,551
2022-01-11T02:07:12,42.805,6.029,CST-1368DR,4981,6326,13570,0.562,551
2022-01-11T02:10:14,42.805,6.029,CST-1368DR,4980,6326,13574,0.561,551
2022-01-11T02:13:15,42.805,6.029,CST-1368DR,4981,6327,13572,0.561,551
2022-01-11T02:16:17,42.805,6.029,CST-1368DR,4981,6326,13572,0.561,551
2022-01-11T02:19:18,42.805,6.029,CST-1368DR,4980,6327,13575,0.560,551
2022-01-11T02:22:20,42.805,6.029,CST-1368DR,4981,6326,13571,0.561,551
2022-01-11T02:25:22,42.805,6.029,CST-1368DR,4980,6325,13572,0.561,551
2022-01-11T02:28:23,42.805,6.029,CST-1368DR,4980,6327,13575,0.560,551
2022-01-11T02:31:25,42.805,6.029,CST-1368DR,4980,6326,13574,0.561,551
2022-01-11T02:34:26,42.805,6.029,CST-1368DR,4980,6327,13576,0.560,551
2022-01-11T02:37:28,42.805,6.029,CST-1368DR,4980,6327,13575,0.560,551
2022-01-11T02:40:29,42.805,6.029,CST-1368DR,4980,6326,13574,0.561,551
2022-01-11T02:43:31,42.805,6.029,CST-1368DR,4980,6326,13574,0.561,551
2022-01-11T02:46:33,42.805,6.029,CST-1368DR,4980,6326,13574,0.561,550
2022-01-11T02:49:34,42.805,6.029,CST-1368DR,4980,6316,13552,0.567,551
2022-01-11T02:52:36,42.805,6.029,CST-1368DR,4980,6325,13571,0.561,551
2022-01-11T02:55:37,42.805,6.029,CST-1368DR,4980,6326,13574,0.561,551
2022-01-11T02:58:39,42.805,6.029,CST-1368DR,4980,6326,13574,0.561,551
2022-01-11T03:01:41,42.805,6.029,CST-1368DR,4980,6326,13574,0.561,551
2022-01-11T03:04:42,42.805,6.029,CST-1368DR,4980,6327,13575,0.560,550
2022-01-11T03:07:44,42.805,6.029,CST-1368DR,4980,6327,13576,0.560,551
2022-01-11T03:10:45,42.805,6.029,CST-1368DR,4980,6326,13573,0.561,551
2022-01-11T03:13:47,42.805,6.029,CST-1368DR,4980,6326,13574,0.561,551
2022-01-11T03:16:48,42.805,6.029,CST-1368DR,4980,6326,13574,0.561,551
2022-01-11T03:19:50,42.805,6.029,CST-1368DR,4980,6327,13576,0.560,551
2022-01-11T03:22:52,42.805,6.029,CST-1368DR,4980,6327,13575,0.560,551
2022-01-11T03:25:53,42.805,6.029,CST-1368DR,4980,6327,13575,0.560,551
2022-01-11T03:28:55,42.805,6.029,CST-1368DR,4980,6326,13574,0.561,551
2022-01-11T03:31:56,42.805,6.029,CST-1368DR,4980,6325,13572,0.561,551
2022-01-11T03:34:58,42.805,6.029,CST-1368DR,4980,6327,13575,0.560,551
2022-01-11T03:37:59,42.805,6.029,CST-1368DR,4980,6326,13574,0.561,551
2022-01-11T03:41:01,42.805,6.029,CST-1368DR,4980,6326,13573,0.561,551
2022-01-11T03:44:03,42.805,6.029,CST-1368DR,4980,6324,13568,0.562,551
2022-01-11T03:47:04,42.805,6.029,CST-1368DR,4980,6326,13574,0.561,551
2022-01-11T03:50:06,42.805,6.029,CST-1368DR,4980,6326,13573,0.561,551
2022-01-11T03:53:07,42.805,6.029,CST-1368DR,4980,6326,13574,0.561,551
2022-01-11T03:56:09,42.805,6.029,CST-1368DR,4980,6326,13573,0.561,551
2022-01-11T03:59:11,42.805,6.029,CST-1368DR,4980,6326,13574,0.561,551
2022-01-11T04:02:12,42.805,6.029,CST-1368DR,4980,6326,13574,0.561,551
2022-01-11T04:05:14,42.805,6.029,CST-1368DR,4980,6326,13574,0.561,551
2022-01-11T04:08:15,42.805,6.029,CST-1368DR,4980,6326,13573,0.561,551
2022-01-11T04:11:17,42.805,6.029,CST-1368DR,4980,6327,13575,0.560,551
2022-01-11T04:14:18,42.805,6.029,CST-1368DR,4980,6327,13575,0.560,551
2022-01-11T04:17:20,42.805,6.029,CST-1368DR,4980,6325,13572,0.561,551
2022-01-11T04:20:22,42.805,6.029,CST-1368DR,4980,6326,13574,0.561,550
2022-01-11T04:23:23,42.805,6.029,CST-1368DR,4980,6326,13574,0.561,551
2022-01-11T04:26:25,42.805,6.029,CST-1368DR,4980,6324,13570,0.562,550
2022-01-11T04:29:26,42.805,6.029,CST-1368DR,4980,6325,13572,0.561,551
2022-01-11T04:32:28,42.805,6.029,CST-1368DR,4980,6326,13574,0.561,551
2022-01-11T04:35:29,42.805,6.029,CST-1368DR,4980,6326,13573,0.561,551
2022-01-11T04:38:31,42.805,6.029,CST-1368DR,4980,6326,13573,0.561,551
2022-01-11T04:41:33,42.805,6.029,CST-1368DR,4980,6323,13568,0.562,551
2022-01-11T04:44:34,42.805,6.029,CST-1368DR,4980,6325,13572,0.561,551
2022-01-11T04:47:36,42.805,6.029,CST-1368DR,4980,6326,13574,0.561,551
2022-01-11T04:50:37,42.805,6.029,CST-1368DR,4980,6325,13571,0.561,551
2022-01-11T04:53:39,42.805,6.029,CST-1368DR,4980,6325,13572,0.561,551
2022-01-11T04:56:41,42.805,6.029,CST-1368DR,4980,6324,13568,0.562,551
2022-01-11T04:59:42,42.805,6.029,CST-1368DR,4980,6326,13574,0.561,551
2022-01-11T05:02:44,42.805,6.029,CST-1368DR,4980,6326,13573,0.561,551
2022-01-11T05:05:45,42.805,6.029,CST-1368DR,4980,6325,13572,0.561,551
2022-01-11T05:08:47,42.805,6.029,CST-1368DR,4980,6325,13572,0.561,551
2022-01-11T05:11:48,42.805,6.029,CST-1368DR,4980,6326,13573,0.561,551
2022-01-11T05:14:50,42.805,6.029,CST-1368DR,4980,6327,13575,0.560,551
2022-01-11T05:17:52,42.805,6.029,CST-1368DR,4980,6326,13573,0.561,551
2022-01-11T05:20:53,42.805,6.029,CST-1368DR,4980,6326,13573,0.561,551
2022-01-11T05:23:55,42.805,6.029,CST-1368DR,4980,6326,13574,0.561,551
2022-01-11T05:26:56,42.805,6.029,CST-1368DR,4980,6326,13573,0.561,551
2022-01-11T05:29:58,42.805,6.029,CST-1368DR,4980,6326,13574,0.561,551
2022-01-11T05:33:00,42.805,6.029,CST-1368DR,4980,6326,13574,0.561,551
2022-01-11T05:36:01,42.805,6.029,CST-1368DR,4980,6326,13573,0.561,551
2022-01-11T05:39:03,42.805,6.029,CST-1368DR,4980,6325,13572,0.561,551
2022-01-11T05:42:04,42.805,6.029,CST-1368DR,4980,6326,13574,0.561,551
2022-01-11T05:45:06,42.805,6.029,CST-1368DR,4980,6326,13573,0.561,551
2022-01-11T05:48:07,42.805,6.029,CST-1368DR,4980,6326,13574,0.561,551
2022-01-11T05:51:09,42.805,6.029,CST-1368DR,4980,6325,13572,0.561,551
2022-01-11T05:54:11,42.805,6.029,CST-1368DR,4980,6324,13568,0.562,551
2022-01-11T05:57:12,42.805,6.029,CST-1368DR,4980,6323,13568,0.562,551
2022-01-11T06:00:14,42.805,6.029,CST-1368DR,4980,6325,13572,0.561,551
2022-01-11T06:03:15,42.805,6.029,CST-1368DR,4980,6325,13572,0.561,551
2022-01-11T06:06:17,42.805,6.029,CST-1368DR,4980,6325,13571,0.561,551
2022-01-11T06:09:19,42.805,6.029,CST-1368DR,4980,6326,13574,0.561,551
2022-01-11T06:12:20,42.805,6.029,CST-1368DR,4980,6325,13572,0.561,551
2022-01-11T06:15:22,42.805,6.029,CST-1368DR,4980,6325,13572,0.561,551
2022-01-11T06:18:23,42.805,6.029,CST-1368DR,4980,6326,13574,0.561,551
2022-01-11T06:21:25,42.805,6.029,CST-1368DR,4980,6326,13573,0.561,551
2022-01-11T06:24:26,42.805,6.029,CST-1368DR,4980,6325,13572,0.561,551
2022-01-11T06:27:28,42.805,6.029,CST-1368DR,4980,6327,13575,0.560,551
2022-01-11T06:30:30,42.805,6.029,CST-1368DR,4980,6326,13574,0.561,551
2022-01-11T06:33:31,42.805,6.029,CST-1368DR,4980,6326,13573,0.561,551
2022-01-11T06:36:33,42.805,6.029,CST-1368DR,4980,6326,13574,0.561,551
2022-01-11T06:39:34,42.805,6.029,CST-1368DR,4980,6326,13574,0.561,551
2022-01-11T06:42:36,42.805,6.029,CST-1368DR,4980,6326,13573,0.561,551
2022-01-11T06:45:37,42.805,6.029,CST-1368DR,4980,6326,13573,0.561,551
2022-01-11T06:48:39,42.805,6.029,CST-1368DR,4980,6325,13571,0.561,551
2022-01-11T06:51:41,42.805,6.029,CST-1368DR,4980,6325,13572,0.561,551
2022-01-11T06:54:42,42.805,6.029,CST-1368DR,4980,6325,13572,0.561,551
2022-01-11T06:57:44,42.805,6.029,CST-1368DR,4980,6324,13568,0.562,551
2022-01-11T07:00:45,42.805,6.029,CST-1368DR,4980,6323,13567,0.563,551
2022-01-11T07:03:47,42.805,6.029,CST-1368DR,4980,6325,13571,0.561,551
2022-01-11T07:06:49,42.805,6.029,CST-1368DR,4980,6326,13574,0.561,551
2022-01-11T07:09:50,42.805,6.029,CST-1368DR,4980,6326,13574,0.561,551
2022-01-11T07:12:52,42.805,6.029,CST-1368DR,4980,6326,13574,0.561,551
2022-01-11T07:15:53,42.805,6.029,CST-1368DR,4980,6323,13567,0.563,551
2022-01-11T07:18:55,42.805,6.029,CST-1368DR,4980,6325,13572,0.561,551
2022-01-11T07:21:56,42.805,6.029,CST-1368DR,4980,6326,13574,0.561,551
2022-01-11T07:24:58,42.805,6.029,CST-1368DR,4980,6327,13575,0.560,551
2022-01-11T07:28:00,42.805,6.029,CST-1368DR,4980,6324,13569,0.562,551
2022-01-11T07:31:01,42.805,6.029,CST-1368DR,4980,6326,13574,0.561,551
2022-01-11T07:34:03,42.805,6.029,CST-1368DR,4980,6326,13573,0.561,551
2022-01-11T07:37:04,42.805,6.029,CST-1368DR,4980,6326,13573,0.561,551
2022-01-11T07:40:06,42.805,6.029,CST-1368DR,4980,6326,13573,0.561,551
2022-01-11T07:43:08,42.805,6.029,CST-1368DR,4980,6326,13574,0.561,551
2022-01-11T07:46:09,42.805,6.029,CST-1368DR,4980,6326,13574,0.561,551
2022-01-11T07:49:11,42.805,6.029,CST-1368DR,4980,6326,13573,0.561,551
2022-01-11T07:52:12,42.805,6.029,CST-1368DR,4980,6325,13571,0.561,551
2022-01-11T07:55:14,42.805,6.029,CST-1368DR,4980,6325,13572,0.561,551
2022-01-11T07:58:15,42.805,6.029,CST-1368DR,4980,6325,13571,0.561,551
2022-01-11T08:01:17,42.805,6.029,CST-1368DR,4980,6324,13568,0.562,551
2022-01-11T08:04:19,42.805,6.029,CST-1368DR,4980,6325,13571,0.561,551
2022-01-11T08:07:20,42.805,6.029,CST-1368DR,4980,6325,13571,0.561,551
2022-01-11T08:10:22,42.805,6.029,CST-1368DR,4980,6324,13570,0.562,551
2022-01-11T08:13:23,42.805,6.029,CST-1368DR,4980,6325,13571,0.561,551
2022-01-11T08:16:25,42.805,6.029,CST-1368DR,4980,6324,13569,0.562,551
2022-01-11T08:19:27,42.805,6.029,CST-1368DR,4980,6326,13573,0.561,551
2022-01-11T08:22:28,42.805,6.029,CST-1368DR,4980,6326,13573,0.561,551
2022-01-11T08:25:30,42.805,6.029,CST-1368DR,4980,6325,13571,0.561,551
2022-01-11T08:28:31,42.805,6.029,CST-1368DR,4980,6326,13573,0.561,551
2022-01-11T08:31:33,42.805,6.029,CST-1368DR,4980,6326,13573,0.561,551
2022-01-11T08:34:34,42.805,6.029,CST-1368DR,4980,6324,13568,0.562,551
2022-01-11T08:37:36,42.805,6.029,CST-1368DR,4980,6325,13572,0.561,551
2022-01-11T08:40:38,42.805,6.029,CST-1368DR,4980,6326,13574,0.561,551
2022-01-11T08:43:39,42.805,6.029,CST-1368DR,4980,6326,13573,0.561,551
2022-01-11T08:46:41,42.805,6.029,CST-1368DR,4980,6326,13573,0.561,551
2022-01-11T08:49:42,42.805,6.029,CST-1368DR,4980,6325,13572,0.561,551
2022-01-11T08:52:44,42.805,6.029,CST-1368DR,4980,6325,13572,0.561,551
2022-01-11T08:55:45,42.805,6.029,CST-1368DR,4980,6326,13573,0.561,551
2022-01-11T08:58:47,42.805,6.029,CST-1368DR,4980,6325,13572,0.561,551
2022-01-11T09:01:49,42.805,6.029,CST-1368DR,4980,6326,13573,0.561,551
2022-01-11T09:04:50,42.805,6.029,CST-1368DR,4980,6324,13569,0.562,551
2022-01-11T09:07:52,42.805,6.029,CST-1368DR,4980,6324,13568,0.562,551
2022-01-11T09:10:53,42.805,6.029,CST-1368DR,4980,6324,13570,0.562,551
2022-01-11T09:13:55,42.805,6.029,CST-1368DR,4980,6324,13569,0.562,551
2022-01-11T09:16:57,42.805,6.029,CST-1368DR,4980,6325,13572,0.561,551
2022-01-11T09:19:58,42.805,6.029,CST-1368DR,4980,6319,13559,0.565,551
2022-01-11T09:23:00,42.805,6.029,CST-1368DR,4980,6325,13572,0.561,551
2022-01-11T09:26:01,42.805,6.029,CST-1368DR,4980,6326,13573,0.561,551
2022-01-11T09:29:03,42.805,6.029,CST-1368DR,4980,6324,13570,0.562,551
2022-01-11T09:32:04,42.805,6.029,CST-1368DR,4980,6325,13572,0.561,551
2022-01-11T09:35:06,42.805,6.029,CST-1368DR,4980,6325,13572,0.561,551
2022-01-11T09:38:08,42.805,6.029,CST-1368DR,4980,6325,13571,0.561,551
2022-01-11T09:41:09,42.805,6.029,CST-1368DR,4980,6325,13572,0.561,551
2022-01-11T09:44:11,42.805,6.029,CST-1368DR,4980,6325,13571,0.561,551
2022-01-11T09:47:12,42.805,6.029,CST-1368DR,4980,6325,13572,0.561,551
2022-01-11T09:50:14,42.805,6.029,CST-1368DR,4980,6325,13571,0.561,551
2022-01-11T09:53:16,42.805,6.029,CST-1368DR,4980,6326,13573,0.561,551
2022-01-11T09:56:17,42.805,6.029,CST-1368DR,4980,6324,13570,0.562,551
2022-01-11T09:59:19,42.805,6.029,CST-1368DR,4980,6325,13572,0.561,551
2022-01-11T10:02:20,42.805,6.029,CST-1368DR,4980,6325,13572,0.561,551
2022-01-11T10:05:22,42.805,6.029,CST-1368DR,4980,6325,13572,0.561,551
2022-01-11T10:08:23,42.805,6.029,CST-1368DR,4980,6325,13571,0.561,551
2022-01-11T10:11:25,42.805,6.029,CST-1368DR,4980,6326,13573,0.561,551
2022-01-11T10:14:27,42.805,6.029,CST-1368DR,4980,6326,13573,0.561,551
2022-01-11T10:17:28,42.805,6.029,CST-1368DR,4980,6324,13569,0.562,551
2022-01-11T10:20:30,42.805,6.029,CST-1368DR,4980,6326,13573,0.561,551
2022-01-11T10:23:31,42.805,6.029,CST-1368DR,4980,6326,13573,0.561,551
2022-01-11T10:26:33,42.805,6.029,CST-1368DR,4980,6326,13573,0.561,551
2022-01-11T10:29:34,42.805,6.029,CST-1368DR,4980,6325,13572,0.561,551
2022-01-11T10:32:36,42.805,6.029,CST-1368DR,4980,6325,13572,0.561,551
2022-01-11T10:35:38,42.805,6.029,CST-1368DR,4980,6325,13572,0.561,551
2022-01-11T10:38:39,42.805,6.029,CST-1368DR,4980,6325,13572,0.561,551
2022-01-11T10:41:41,42.805,6.029,CST-1368DR,4980,6323,13567,0.563,551
2022-01-11T10:44:42,42.805,6.029,CST-1368DR,4980,6325,13572,0.561,551
2022-01-11T10:47:44,42.805,6.029,CST-1368DR,4980,6325,13571,0.561,551
2022-01-11T10:50:46,42.805,6.029,CST-1368DR,4980,6324,13568,0.562,551
2022-01-11T10:53:47,42.805,6.029,CST-1368DR,4980,6323,13568,0.562,551
2022-01-11T10:56:49,42.805,6.029,CST-1368DR,4980,6325,13571,0.561,551
2022-01-11T10:59:50,42.805,6.029,CST-1368DR,4980,6323,13567,0.563,551
2022-01-11T11:02:52,42.805,6.029,CST-1368DR,4980,6323,13568,0.562,551
2022-01-11T11:05:53,42.805,6.029,CST-1368DR,4980,6324,13569,0.562,551
2022-01-11T11:08:55,42.805,6.029,CST-1368DR,4980,6324,13569,0.562,551
2022-01-11T11:11:57,42.805,6.029,CST-1368DR,4980,6323,13568,0.562,551
2022-01-11T11:14:58,42.805,6.029,CST-1368DR,4980,6323,13566,0.563,551
2022-01-11T11:18:00,42.805,6.029,CST-1368DR,4980,6325,13571,0.561,551
2022-01-11T11:21:01,42.805,6.029,CST-1368DR,4980,6324,13568,0.562,551
2022-01-11T11:24:03,42.805,6.029,CST-1368DR,4980,6324,13569,0.562,551
2022-01-11T11:27:05,42.805,6.029,CST-1368DR,4980,6324,13569,0.562,551
2022-01-11T11:30:06,42.805,6.029,CST-1368DR,4980,6323,13568,0.562,551
2022-01-11T11:33:08,42.805,6.029,CST-1368DR,4980,6323,13568,0.562,551
2022-01-11T11:36:09,42.805,6.029,CST-1368DR,4980,6325,13571,0.561,551
2022-01-11T11:39:11,42.805,6.029,CST-1368DR,4980,6323,13567,0.563,551
2022-01-11T11:42:12,42.805,6.029,CST-1368DR,4980,6322,13565,0.563,551
2022-01-11T11:45:14,42.805,6.029,CST-1368DR,4980,6323,13567,0.563,551
2022-01-11T11:48:16,42.805,6.029,CST-1368DR,4980,6325,13571,0.561,551
2022-01-11T11:51:17,42.805,6.029,CST-1368DR,4980,6323,13567,0.563,551
2022-01-11T11:54:19,42.805,6.029,CST-1368DR,4980,6324,13569,0.562,551
2022-01-11T11:57:20,42.805,6.029,CST-1368DR,4980,6323,13568,0.562,551
2022-01-11T12:00:22,42.805,6.029,CST-1368DR,4980,6324,13570,0.562,551
2022-01-11T12:03:23,42.805,6.029,CST-1368DR,4980,6324,13570,0.562,551
2022-01-11T12:06:25,42.805,6.029,CST-1368DR,4980,6323,13566,0.563,551
2022-01-11T12:09:27,42.805,6.029,CST-1368DR,4980,6324,13569,0.562,551
2022-01-11T12:12:28,42.805,6.029,CST-1368DR,4980,6324,13568,0.562,551
2022-01-11T12:15:30,42.805,6.029,CST-1368DR,4980,6323,13567,0.563,551
2022-01-11T12:18:31,42.805,6.029,CST-1368DR,4980,6324,13569,0.562,551
2022-01-11T12:21:33,42.805,6.029,CST-1368DR,4980,6322,13565,0.563,551
2022-01-11T12:24:35,42.805,6.029,CST-1368DR,4980,6324,13569,0.562,551
2022-01-11T12:27:36,42.805,6.029,CST-1368DR,4980,6324,13569,0.562,551
2022-01-11T12:30:38,42.805,6.029,CST-1368DR,4980,6323,13567,0.563,551
2022-01-11T12:33:39,42.805,6.029,CST-1368DR,4980,6324,13569,0.562,551
2022-01-11T12:36:41,42.805,6.029,CST-1368DR,4980,6323,13566,0.563,551
2022-01-11T12:39:42,42.805,6.029,CST-1368DR,4980,6323,13566,0.563,551
2022-01-11T12:42:44,42.805,6.029,CST-1368DR,4980,6323,13567,0.563,551
2022-01-11T12:45:46,42.805,6.029,CST-1368DR,4980,6324,13569,0.562,551
2022-01-11T12:48:47,42.805,6.029,CST-1368DR,4980,6323,13567,0.563,551
2022-01-11T12:51:49,42.805,6.029,CST-1368DR,4980,6315,13551,0.567,551
2022-01-11T12:54:50,42.805,6.029,CST-1368DR,4980,6322,13565,0.563,551
2022-01-11T12:57:52,42.805,6.029,CST-1368DR,4980,6322,13566,0.563,551
2022-01-11T13:00:54,42.805,6.029,CST-1368DR,4980,6318,13557,0.566,551
2022-01-11T13:03:55,42.805,6.029,CST-1368DR,4980,6323,13567,0.563,551
2022-01-11T13:06:57,42.805,6.029,CST-1368DR,4980,6321,13563,0.564,551
2022-01-11T13:09:58,42.805,6.029,CST-1368DR,4980,6321,13562,0.564,551
2022-01-11T13:13:00,42.805,6.029,CST-1368DR,4980,6322,13564,0.564,551
2022-01-11T13:16:01,42.805,6.029,CST-1368DR,4980,6322,13565,0.563,551
2022-01-11T13:19:03,42.805,6.029,CST-1368DR,4980,6322,13565,0.563,551
2022-01-11T13:22:05,42.805,6.029,CST-1368DR,4980,6322,13565,0.563,551
2022-01-11T13:25:06,42.805,6.029,CST-1368DR,4980,6322,13565,0.563,551
2022-01-11T13:28:08,42.805,6.029,CST-1368DR,4980,6322,13566,0.563,551
2022-01-11T13:31:09,42.805,6.029,CST-1368DR,4980,6321,13562,0.564,551
2022-01-11T13:34:11,42.805,6.029,CST-1368DR,4980,6322,13565,0.563,550
2022-01-11T13:37:12,42.805,6.029,CST-1368DR,4980,6322,13566,0.563,551
2022-01-11T13:40:14,42.805,6.029,CST-1368DR,4980,6320,13560,0.565,551
2022-01-11T13:43:16,42.805,6.029,CST-1368DR,4980,6323,13567,0.563,551
2022-01-11T13:46:17,42.805,6.029,CST-1368DR,4980,6323,13567,0.563,551
2022-01-11T13:49:19,42.805,6.029,CST-1368DR,4980,6323,13568,0.562,551
2022-01-11T13:52:20,42.805,6.029,CST-1368DR,4980,6322,13564,0.564,551
2022-01-11T13:55:22,42.805,6.029,CST-1368DR,4980,6322,13566,0.563,551
2022-01-11T13:58:24,42.805,6.029,CST-1368DR,4980,6322,13565,0.563,551
2022-01-11T14:01:25,42.805,6.029,CST-1368DR,4980,6323,13568,0.562,551
2022-01-11T14:04:27,42.805,6.029,CST-1368DR,4980,6323,13566,0.563,551
2022-01-11T14:07:28,42.805,6.029,CST-1368DR,4980,6323,13567,0.563,551
2022-01-11T14:10:30,42.805,6.029,CST-1368DR,4980,6313,13546,0.569,551
2022-01-11T14:13:31,42.805,6.029,CST-1368DR,4980,6322,13565,0.563,551
2022-01-11T14:16:33,42.805,6.029,CST-1368DR,4980,6323,13567,0.563,551
2022-01-11T14:19:35,42.805,6.029,CST-1368DR,4980,6322,13565,0.563,551
2022-01-11T14:22:36,42.805,6.029,CST-1368DR,4980,6316,13552,0.567,551
2022-01-11T14:25:38,42.805,6.029,CST-1368DR,4980,6322,13564,0.564,551
2022-01-11T14:28:39,42.805,6.029,CST-1368DR,4980,6320,13560,0.565,551
2022-01-11T14:31:41,42.805,6.029,CST-1368DR,4980,6320,13562,0.564,551
2022-01-11T14:34:42,42.805,6.029,CST-1368DR,4980,6322,13564,0.564,551
2022-01-11T14:37:44,42.805,6.029,CST-1368DR,4980,6318,13556,0.566,551
2022-01-11T14:40:46,42.805,6.029,CST-1368DR,4980,6322,13565,0.563,551
2022-01-11T14:43:47,42.805,6.029,CST-1368DR,4980,6322,13566,0.563,551
2022-01-11T14:46:49,42.805,6.029,CST-1368DR,4980,6322,13566,0.563,551
2022-01-11T14:49:50,42.805,6.029,CST-1368DR,4980,6323,13567,0.563,551
2022-01-11T14:52:52,42.805,6.029,CST-1368DR,4980,6323,13567,0.563,551
2022-01-11T14:55:54,42.805,6.029,CST-1368DR,4980,6321,13563,0.564,551
2022-01-11T14:58:55,42.805,6.029,CST-1368DR,4980,6322,13564,0.564,551
2022-01-11T15:01:57,42.805,6.029,CST-1368DR,4980,6322,13564,0.564,551
2022-01-11T15:04:58,42.805,6.029,CST-1368DR,4980,6322,13565,0.563,551
2022-01-11T15:08:00,42.805,6.029,CST-1368DR,4980,6323,13567,0.563,551
2022-01-11T15:11:01,42.805,6.029,CST-1368DR,4980,6322,13566,0.563,551
2022-01-11T15:14:03,42.805,6.029,CST-1368DR,4980,6324,13570,0.562,551
2022-01-11T15:17:05,42.805,6.029,CST-1368DR,4980,6325,13571,0.561,551
2022-01-11T15:20:06,42.805,6.029,CST-1368DR,4980,6323,13567,0.563,551
2022-01-11T15:23:08,42.805,6.029,CST-1368DR,4980,6325,13571,0.561,551
2022-01-11T15:26:09,42.805,6.029,CST-1368DR,4980,6324,13568,0.562,551
2022-01-11T15:29:11,42.805,6.029,CST-1368DR,4979,6324,13571,0.561,551
2022-01-11T15:32:13,42.805,6.029,CST-1368DR,4979,6323,13571,0.561,551
2022-01-11T15:35:14,42.805,6.029,CST-1368DR,4980,6324,13570,0.562,551
2022-01-11T15:38:16,42.805,6.029,CST-1368DR,4980,6324,13570,0.562,551
2022-01-11T15:41:17,42.805,6.029,CST-1368DR,4980,6324,13570,0.562,551
2022-01-11T15:44:19,42.805,6.029,CST-1368DR,4980,6324,13568,0.562,551
2022-01-11T15:47:20,42.805,6.029,CST-1368DR,4980,6324,13569,0.562,551
2022-01-11T15:50:22,42.805,6.029,CST-1368DR,4979,6324,13572,0.561,551
2022-01-11T15:53:24,42.805,6.029,CST-1368DR,4979,6324,13571,0.561,551
2022-01-11T15:56:25,42.805,6.029,CST-1368DR,4979,6319,13561,0.564,551
2022-01-11T15:59:27,42.805,6.029,CST-1368DR,4979,6321,13566,0.563,551
2022-01-11T16:02:28,42.805,6.029,CST-1368DR,4979,6323,13571,0.561,551
2022-01-11T16:05:30,42.805,6.029,CST-1368DR,4979,6325,13573,0.561,551
2022-01-11T16:08:32,42.805,6.029,CST-1368DR,4979,6324,13573,0.561,551
2022-01-11T16:11:33,42.805,6.029,CST-1368DR,4979,6324,13571,0.561,551
2022-01-11T16:14:35,42.805,6.029,CST-1368DR,4979,6324,13573,0.561,551
2022-01-11T16:17:36,42.805,6.029,CST-1368DR,4979,6323,13571,0.561,551
2022-01-11T16:20:38,42.805,6.029,CST-1368DR,4979,6324,13571,0.561,551
2022-01-11T16:23:39,42.805,6.029,CST-1368DR,4979,6323,13570,0.562,551
2022-01-11T16:26:41,42.805,6.029,CST-1368DR,4979,6324,13571,0.561,551
2022-01-11T16:29:43,42.805,6.029,CST-1368DR,4979,6323,13571,0.561,551
2022-01-11T16:32:44,42.805,6.029,CST-1368DR,4979,6323,13569,0.562,551
2022-01-11T16:35:46,42.805,6.029,CST-1368DR,4979,6322,13567,0.563,551
2022-01-11T16:38:47,42.805,6.029,CST-1368DR,4979,6324,13572,0.561,551
2022-01-11T16:41:49,42.805,6.029,CST-1368DR,4979,6323,13571,0.561,551
2022-01-11T16:44:51,42.805,6.029,CST-1368DR,4979,6323,13569,0.562,551
2022-01-11T16:47:52,42.805,6.029,CST-1368DR,4979,6324,13571,0.561,551
2022-01-11T16:50:54,42.805,6.029,CST-1368DR,4979,6324,13573,0.561,551